Theta_e
316 316 316 315 318 318 318 319 319 319 320 321 319 316 316 318 316 315 314 312 313 315 316 313 313 314 315 318 318 317 318 318 318 318 317 318 316 316 321 319 320 322 321 322 321 315 311 311 314 320 325 325 326 329 331 330 332 331 330 331 331 331 330
317 317 317 318 317 319 316 316 317 316 316 317 317 317 316 315 317 315 314 314 312 312 315 314 315 316 314 313 314 315 313 313 315 315 314 313 316 316 318 317 318 317 318 320 319 319 314 311 310 314 316 322 325 327 326 329 330 330 330 331 332 331 330
317 316 316 315 315 316 317 316 315 314 314 315 314 314 313 315 315 315 314 314 315 316 315 312 312 312 313 313 313 313 313 313 313 313 312 311 311 311 313 315 315 315 316 317 318 318 318 316 310 312 313 314 313 317 323 326 326 328 329 329 329 330 329
316 315 314 314 315 315 314 315 314 315 315 314 315 314 314 314 314 316 313 315 316 318 316 314 313 314 314 313 314 314 314 313 313 312 312 312 310 309 310 310 309 311 309 308 308 311 311 308 307 308 309 309 316 314 318 323 324 327 327 326 325 326 327
316 316 314 314 315 314 313 314 315 314 312 314 315 314 314 314 314 314 316 314 316 314 313 314 315 315 313 315 314 314 312 312 312 312 310 310 311 310 309 310 309 310 310 309 309 309 307 307 307 306 305 306 307 308 320 320 322 321 321 322 323 324 325
317 316 315 314 315 314 313 314 313 312 312 314 313 314 313 313 314 312 312 311 311 313 313 312 313 314 314 313 312 312 311 311 310 310 309 308 309 309 308 309 309 310 310 310 311 309 308 308 305 301 304 306 305 305 306 319 315 320 321 320 322 324 324
317 316 316 315 316 315 315 315 314 313 312 313 313 313 315 316 314 315 316 313 312 312 313 313 314 315 313 313 313 312 312 311 312 310 309 309 308 308 309 307 307 308 306 309 308 308 308 307 304 303 303 304 305 304 306 305 307 309 310 316 322 320 317
318 316 317 317 317 315 315 316 315 314 313 313 315 315 317 316 314 315 313 312 313 313 312 312 315 313 314 314 315 313 313 312 311 311 309 309 311 309 307 309 308 307 307 307 308 309 308 308 307 305 304 301 300 301 302 304 305 306 306 308 312 310 311
319 317 317 318 317 317 316 317 316 315 315 314 316 316 315 317 316 316 315 313 313 312 312 313 313 312 313 313 313 311 311 316 310 310 309 309 307 307 307 308 306 306 308 307 308 308 308 308 309 309 307 302 300 298 301 301 303 304 309 307 308 310 311
318 317 317 317 316 318 317 316 317 317 316 315 317 316 315 316 317 316 315 314 314 313 313 313 313 313 312 312 311 309 309 311 312 311 310 309 310 309 309 308 305 305 307 307 307 309 308 307 309 307 307 306 303 300 300 298 300 302 306 309 306 307 310
317 316 318 318 317 318 318 316 317 318 317 317 318 317 315 316 317 322 315 314 314 313 313 313 313 312 311 312 311 311 312 311 309 310 310 310 309 309 308 308 307 307 307 307 308 308 307 307 306 306 305 306 306 303 302 299 299 303 304 306 308 307 309
319 317 318 320 317 317 318 317 317 315 319 318 318 316 314 316 317 317 316 315 314 314 313 311 312 311 311 311 310 311 312 310 309 308 310 309 309 308 308 309 308 307 308 307 307 309 308 307 306 306 305 306 306 305 303 302 298 300 306 304 306 309 307
321 320 319 320 317 317 317 319 318 315 316 318 318 317 315 316 317 316 316 316 315 314 313 312 311 311 309 310 310 312 310 310 310 309 310 309 313 310 307 306 306 306 305 305 306 309 309 307 306 306 306 306 305 305 304 302 300 300 304 305 305 305 307
321 320 319 320 319 318 317 317 318 318 317 316 318 318 316 316 316 317 316 316 316 314 313 312 312 311 309 310 309 310 309 309 310 310 309 308 310 308 307 307 305 306 305 305 305 304 305 306 308 306 306 305 304 304 303 302 300 301 302 305 305 306 307
321 320 318 319 318 318 317 317 317 317 317 318 317 318 318 317 316 317 316 315 315 315 314 313 312 311 310 309 309 311 310 308 308 309 308 307 307 311 307 306 307 307 307 306 304 305 305 304 303 303 305 306 304 305 305 302 300 300 299 302 303 306 306
322 321 320 320 318 317 318 317 317 316 317 318 318 318 317 317 316 316 317 316 314 315 315 314 313 312 311 310 310 310 311 307 307 307 307 307 307 307 307 305 305 306 307 304 305 305 305 305 304 302 303 302 302 302 303 304 301 299 299 301 303 304 305
318 318 317 317 320 320 319 317 318 317 319 320 318 318 318 318 316 317 318 317 316 316 316 315 314 313 313 311 311 311 311 309 308 307 308 308 307 307 305 304 305 306 306 304 305 304 304 304 304 303 301 301 301 302 303 302 304 302 300 300 300 303 304
319 319 319 318 316 316 316 317 318 317 316 318 320 319 318 317 316 318 318 318 318 317 317 318 317 317 314 313 312 312 312 311 310 309 309 309 311 307 306 305 305 306 305 304 304 303 303 302 303 302 301 301 301 302 303 302 301 301 299 298 299 300 301
317 317 317 315 313 314 314 315 316 318 318 317 317 318 318 316 317 317 318 318 318 318 318 318 318 318 317 315 313 312 312 312 311 310 309 309 309 308 307 306 307 306 305 303 302 303 302 302 303 301 301 301 301 300 299 300 301 300 300 299 298 299 299
316 315 315 314 314 315 315 315 316 317 318 318 316 316 314 316 316 317 318 318 319 319 319 318 318 317 318 317 314 313 312 311 311 310 309 310 309 308 308 307 306 305 304 303 303 302 302 301 301 297 298 296 296 295 295 296 297 296 296 296 296 297 298
318 317 315 313 314 315 315 315 315 315 316 317 316 315 315 316 316 316 316 317 317 317 317 317 317 317 318 318 317 314 313 312 312 311 310 309 308 307 308 307 306 305 304 303 303 302 300 296 296 294 294 295 295 294 294 295 295 295 295 295 294 294 295
314 315 315 314 313 314 313 312 312 313 313 313 315 315 315 315 315 315 315 315 315 315 316 316 317 317 317 317 316 314 314 313 312 311 310 310 308 307 307 306 305 305 310 310 305 303 301 300 296 293 293 294 296 294 293 293 294 293 293 293 293 294 293
312 313 312 313 314 314 313 312 311 311 313 313 314 313 313 314 315 315 315 314 314 314 315 316 315 309 310 316 315 316 314 312 312 311 310 309 308 308 306 305 310 315 308 305 300 296 295 296 298 297 293 294 294 293 292 292 291 292 293 291 290 291 291
306 305 304 306 311 314 314 314 312 313 311 312 313 312 313 312 313 314 315 314 313 314 316 316 307 303 301 302 312 313 312 312 312 311 309 308 307 306 306 306 307 307 305 303 299 294 294 294 294 295 296 297 298 294 292 291 291 292 292 292 292 291 290
302 304 305 304 306 306 308 311 313 313 312 311 313 311 312 314 314 313 314 314 314 315 315 310 303 302 301 300 303 312 312 313 311 309 309 308 306 305 304 305 305 306 303 302 302 300 298 296 294 293 293 293 293 293 295 294 293 291 291 291 291 291 291
303 303 305 306 306 305 304 304 304 306 309 313 311 311 313 313 313 313 313 312 313 314 314 307 302 301 301 299 298 305 312 312 310 309 309 308 306 304 303 304 305 306 305 308 307 302 301 299 297 294 294 294 293 292 290 290 291 295 293 292 291 291 292
301 302 303 304 305 304 304 304 306 307 307 307 306 306 307 310 311 310 312 313 313 313 313 308 302 301 300 298 297 302 308 309 308 308 307 307 306 304 304 304 303 304 304 305 303 301 301 298 298 298 295 292 292 294 293 292 291 291 292 293 292 291 293
302 303 303 302 301 301 301 301 301 302 303 305 304 304 305 304 304 306 307 308 309 308 310 304 300 300 299 297 297 302 306 306 305 304 304 304 304 303 303 303 302 302 302 302 304 302 301 298 296 297 295 294 294 294 295 295 294 293 293 293 292 292 293
302 303 303 303 303 303 302 302 302 303 303 303 304 304 304 303 302 302 304 305 307 299 297 296 298 298 296 294 299 304 304 303 303 302 300 300 301 302 302 301 300 301 302 301 297 296 297 299 297 295 294 293 292 292 293 297 296 295 296 295 294 294 294
300 301 301 302 302 302 302 301 302 303 303 301 302 302 302 303 302 302 302 303 299 295 292 292 293 293 294 295 298 301 300 300 300 299 300 301 302 303 303 302 301 301 301 300 295 292 293 295 296 294 292 291 292 292 292 294 295 294 292 292 291 291 291
300 301 300 301 301 300 301 301 301 302 303 301 301 301 302 300 299 299 298 298 296 293 290 292 293 294 295 296 298 299 298 299 299 299 301 301 302 303 304 309 305 302 300 298 290 289 290 295 292 290 290 289 289 288 289 291 293 292 292 292 291 291 291
300 300 299 299 300 300 300 301 300 302 302 302 301 300 299 298 296 296 295 295 297 292 290 292 292 293 294 295 298 299 299 298 295 294 295 294 294 294 295 295 297 296 295 291 289 289 290 292 290 289 288 287 287 286 287 287 287 288 288 288 288 289 289
299 299 299 299 299 300 300 301 302 302 301 301 300 298 298 297 295 294 293 292 292 290 290 290 292 292 293 293 294 296 295 293 293 292 291 291 291 289 291 292 292 289 289 289 288 288 289 290 289 289 288 286 285 286 288 287 288 288 286 286 286 287 288
299 299 300 300 300 300 301 301 300 302 302 300 299 298 296 295 293 292 291 290 290 289 290 289 290 291 292 292 292 293 292 291 290 289 288 289 289 290 291 291 290 289 289 289 288 288 289 289 289 289 287 286 287 289 289 286 287 290 286 286 287 287 287
299 302 301 301 299 298 299 300 300 300 299 298 298 296 294 293 291 289 289 289 289 289 291 292 289 291 291 292 291 291 291 291 290 289 288 289 290 292 293 292 290 290 288 288 288 288 288 289 288 290 288 288 288 288 288 287 287 286 285 285 284 285 285
299 303 302 301 299 299 299 300 299 298 299 298 298 295 293 291 290 289 288 288 288 288 288 291 291 290 290 290 291 290 290 289 289 291 290 291 292 293 293 293 292 290 289 288 288 288 288 288 289 288 288 288 288 288 288 286 286 285 284 284 285 284 285
300 300 300 299 299 298 298 299 299 300 299 298 297 294 292 291 290 288 287 287 289 288 289 289 290 290 289 289 289 289 289 289 291 293 294 293 293 293 293 292 292 289 289 289 289 288 288 288 288 288 288 288 288 288 286 286 284 285 284 284 284 285 286
Wind_Speed
7 8 8 6 6 6 7 6 5 5 4 5 6 5 4 5 5 6 5 5 6 5 6 5 5 5 5 4 4 3 3 3 3 4 3 2 4 2 2 2 2 2 2 2 2 1 2 2 1 2 1 2 3 2 1 1 1 1 2 2 1 2 1
8 8 7 7 7 7 6 4 6 5 6 6 6 5 5 5 4 4 4 5 5 4 5 5 4 4 4 4 5 5 5 5 4 3 4 3 3 2 2 1 2 1 2 2 2 2 1 1 1 1 3 2 2 5 3 2 2 2 2 1 1 0 2
8 7 7 7 7 6 7 6 6 6 6 5 5 5 4 4 4 4 4 4 4 4 4 4 4 4 4 4 4 4 4 5 4 4 4 3 4 3 2 4 2 1 1 1 0 0 0 0 0 0 2 3 3 2 1 4 3 2 3 3 2 3 3
10 9 8 7 6 6 8 7 7 6 5 6 6 4 5 4 4 4 4 4 4 4 4 4 4 3 3 4 4 5 5 5 5 5 6 5 4 5 5 5 5 4 4 3 3 3 3 2 1 2 2 2 3 3 3 3 4 3 3 3 3 4 5
10 9 10 9 7 7 7 7 7 6 5 6 5 5 4 4 4 4 4 4 4 4 4 3 3 4 4 4 5 5 5 4 5 5 4 5 5 5 5 6 5 4 4 4 2 4 5 2 2 1 3 3 2 1 2 2 3 3 3 4 5 4 4
10 10 9 8 6 7 6 7 8 7 6 6 5 6 4 4 4 3 4 4 4 4 3 4 4 4 4 4 4 4 4 4 4 4 5 4 4 4 4 3 5 5 5 3 4 3 3 5 5 4 2 1 0 3 2 0 2 2 3 5 5 2 4
9 9 8 8 7 6 6 7 8 8 7 7 6 5 5 5 3 3 4 4 4 3 3 3 4 3 4 5 4 4 4 3 4 4 4 4 4 4 4 6 5 5 4 4 4 6 5 4 4 3 1 2 1 2 2 3 5 6 4 3 2 4 4
9 8 7 7 7 7 6 7 7 7 7 7 7 6 5 5 4 3 4 5 4 3 3 2 2 3 4 4 4 3 3 4 4 5 4 4 4 4 4 4 5 4 4 5 5 5 4 4 2 1 4 5 5 4 4 3 3 4 4 3 5 5 5
8 8 7 6 6 7 6 7 7 7 7 7 7 7 6 6 4 4 4 4 4 3 2 1 1 3 4 4 4 3 3 2 3 4 2 3 3 3 4 3 5 4 4 4 4 4 4 3 4 2 3 3 5 4 4 4 4 2 4 5 2 6 7
8 8 8 7 7 6 6 6 7 7 6 6 7 7 7 5 6 5 5 4 4 4 2 1 1 1 4 4 4 4 3 1 3 3 1 3 1 1 3 4 4 4 4 3 3 4 3 4 4 4 3 2 2 3 2 4 2 2 3 5 5 3 6
6 7 6 7 7 6 5 5 5 7 7 7 7 6 6 6 6 6 6 5 4 4 4 3 2 3 3 3 4 3 4 3 3 3 2 2 1 1 2 4 3 4 3 3 2 1 2 3 3 3 3 3 4 5 1 2 3 1 2 2 2 3 4
4 5 5 7 6 5 6 6 5 7 7 6 7 6 6 5 6 5 5 5 5 4 4 3 1 2 3 3 3 4 2 3 3 1 1 4 2 2 0 1 1 2 1 2 2 2 1 2 1 1 1 2 3 3 3 1 2 3 2 5 3 3 4
4 5 5 7 7 6 6 6 5 5 7 8 7 8 6 6 6 6 5 6 5 4 4 4 2 3 1 2 3 3 4 4 4 3 2 2 3 2 1 1 3 1 2 3 2 1 2 2 2 1 0 0 0 1 1 1 1 5 3 3 4 6 7
3 4 5 6 7 6 5 6 6 4 4 5 8 7 7 7 6 6 6 5 6 4 5 4 3 3 3 1 2 2 4 4 3 3 3 2 1 3 3 2 3 3 2 1 2 4 3 0 1 1 1 0 1 2 0 0 0 4 4 2 3 4 5
3 3 4 4 5 4 5 5 6 6 5 4 5 8 9 6 5 6 6 6 5 4 5 4 4 3 4 2 3 2 4 4 3 2 3 4 3 4 4 3 3 3 2 2 0 1 1 3 1 0 2 1 2 3 2 1 1 1 4 3 4 4 4
4 4 4 5 2 1 2 4 4 5 4 4 4 5 6 5 3 5 6 5 2 3 6 6 5 4 4 5 4 4 4 4 4 3 4 5 4 3 3 2 2 3 2 2 0 1 2 2 2 2 1 1 2 3 3 2 0 2 4 4 3 3 2
6 6 4 3 4 4 4 3 0 2 1 1 3 4 6 9 9 7 6 5 2 4 3 3 3 6 7 6 6 6 4 5 5 4 4 5 4 4 4 3 2 2 2 2 0 1 2 3 3 3 4 4 4 4 3 3 2 0 1 3 2 2 3
3 0 1 3 3 2 3 3 3 3 2 2 1 2 6 5 5 7 8 7 5 3 4 7 6 5 7 5 8 7 7 6 6 5 4 5 5 5 4 5 4 3 3 3 1 1 1 3 2 4 4 4 4 3 4 4 3 1 2 4 5 3 3
3 4 4 3 3 2 2 3 3 2 2 3 2 2 6 5 7 5 4 5 5 4 6 7 6 8 8 7 6 7 7 7 7 7 5 4 5 5 5 5 4 4 4 4 3 0 1 1 3 4 5 5 5 5 5 6 5 5 5 4 3 6 4
3 3 3 3 3 3 3 3 2 3 2 2 2 4 3 4 4 5 6 6 6 4 6 7 7 10 9 8 7 7 7 7 7 7 6 6 6 5 6 5 4 4 4 4 3 2 2 3 3 3 3 3 4 4 5 4 5 5 4 5 4 3 5
5 4 3 3 3 3 3 3 4 3 1 1 2 3 2 3 4 5 5 5 4 6 7 6 6 6 9 9 7 7 8 8 9 8 7 6 5 6 6 5 4 4 5 3 3 2 3 3 2 2 2 3 3 3 3 4 5 5 5 5 3 5 4
4 4 4 4 4 4 4 4 3 2 1 2 3 3 3 3 3 3 2 2 3 4 5 7 8 8 7 5 3 6 8 8 7 8 7 7 6 7 6 6 5 4 4 6 7 6 5 5 2 0 2 1 1 2 3 3 3 5 5 5 6 5 6
5 4 4 4 5 5 4 4 3 3 4 4 4 3 3 4 4 4 4 4 4 5 6 5 7 11 8 4 5 5 3 3 5 6 7 7 7 7 7 6 6 9 9 9 9 9 8 6 4 3 2 1 1 2 2 3 4 3 3 5 5 5 6
1 0 2 4 4 5 4 4 3 4 3 3 4 4 3 4 4 5 5 4 4 5 6 6 11 10 10 8 4 4 4 4 5 6 7 8 7 7 6 7 7 8 9 7 8 9 8 7 5 3 4 6 5 3 4 4 4 3 3 4 4 4 5
2 1 1 2 3 2 3 3 4 4 3 3 4 3 3 5 5 5 5 5 6 6 6 9 12 12 12 12 11 8 7 7 5 3 5 7 7 7 7 7 6 5 5 6 5 5 3 3 4 5 6 9 9 6 3 3 4 4 3 5 6 6 5
1 1 1 1 2 3 4 4 1 1 3 5 3 3 5 4 6 6 6 6 7 7 6 10 13 13 13 12 13 10 6 6 7 8 6 7 6 6 6 6 5 4 4 8 5 3 3 3 6 8 6 4 4 5 8 8 7 6 4 4 5 7 6
2 1 2 4 4 4 4 3 3 3 4 2 1 2 3 5 5 5 5 7 7 6 6 9 13 13 13 11 10 9 5 5 6 8 8 8 7 7 6 6 6 5 4 3 3 3 3 2 1 0 1 2 2 4 6 7 9 9 7 6 6 8 7
1 0 1 1 2 3 3 3 4 5 4 3 4 5 4 4 2 3 4 4 4 2 3 10 13 14 12 7 10 8 5 5 5 5 6 5 6 5 5 5 5 5 4 3 3 3 2 3 3 3 2 2 3 2 2 2 2 3 3 4 6 7 8
1 0 1 1 0 1 1 2 3 4 2 3 4 4 5 4 5 5 4 4 1 2 0 4 2 2 5 8 10 6 6 6 6 5 5 4 5 5 6 6 4 2 1 1 4 6 4 3 2 2 2 2 2 1 1 3 4 5 4 3 3 3 4
1 0 1 1 1 2 3 4 4 1 2 3 3 4 4 4 4 4 4 2 3 1 2 2 7 10 10 11 8 6 6 6 6 6 6 5 5 4 3 3 3 3 4 4 8 9 6 4 1 2 2 2 2 2 4 4 5 6 10 9 7 5 4
1 1 0 0 1 2 2 1 2 1 1 2 3 4 3 3 5 4 4 4 3 3 3 2 8 11 12 11 9 7 6 7 6 6 5 4 4 4 3 4 4 2 2 3 7 9 8 4 3 3 3 3 3 3 3 3 4 5 8 9 10 11 12
3 3 4 3 2 3 3 3 2 1 1 0 2 2 4 6 5 5 5 4 7 7 4 4 5 10 12 12 9 6 6 6 6 4 5 5 5 6 6 8 9 8 7 8 10 10 10 7 4 3 3 3 3 4 4 1 3 5 5 6 6 7 8
4 5 5 4 4 4 4 1 1 1 2 2 1 4 5 6 6 5 4 4 5 4 6 4 5 10 11 12 11 7 5 7 7 5 5 5 5 4 6 6 7 11 12 11 10 9 9 7 3 1 1 1 3 6 4 3 4 4 4 4 6 4 6
3 4 3 3 2 2 1 2 2 1 1 2 5 5 6 5 7 5 5 4 5 4 3 5 5 11 12 13 13 11 6 6 5 6 5 5 5 5 5 5 5 8 11 10 8 7 6 5 4 1 1 3 3 4 4 4 5 6 4 4 5 5 6
2 3 3 2 3 4 4 2 2 2 1 3 6 6 5 6 6 6 5 4 4 4 4 6 5 10 13 13 13 12 8 5 5 6 6 5 5 5 5 4 4 5 7 7 6 6 5 5 5 2 4 7 9 9 6 4 4 4 5 6 6 6 6
4 4 5 5 4 5 5 5 5 4 3 4 7 7 6 6 6 6 5 5 4 4 4 4 7 7 10 12 12 11 10 7 7 6 6 4 3 3 4 4 4 5 4 1 3 5 6 7 5 4 8 8 9 10 7 5 4 5 6 6 6 7 7
3 2 3 2 1 3 3 4 4 5 6 6 8 7 6 6 6 6 6 6 3 3 3 4 6 8 8 10 10 10 9 8 7 5 5 4 4 4 4 3 0 2 3 5 7 8 7 6 5 8 8 8 9 7 4 4 4 6 5 6 6 7 7
Wind_Direction
147 142 139 140 129 128 120 130 121 120 107 105 101 93 87 79 76 66 56 63 75 74 76 80 82 73 64 49 60 79 86 65 80 130 142 162 142 164 158 93 43 71 98 87 83 151 163 131 311 325 309 297 319 274 204 124 120 110 12 349 48 100 107
138 137 135 130 131 133 130 118 100 96 98 97 105 104 93 83 76 82 69 69 79 87 87 79 72 78 84 71 57 56 65 56 65 71 90 77 79 129 119 64 68 82 61 36 62 25 107 93 304 312 306 328 327 278 266 248 177 173 185 219 285 291 260
132 129 125 132 139 136 128 130 114 111 108 102 102 102 94 85 85 73 68 68 74 86 94 97 88 76 73 72 75 78 73 72 49 66 81 102 96 84 93 139 134 97 72 77 313 160 357 93 150 232 266 276 296 289 270 253 259 245 212 201 234 264 260
138 134 131 136 139 124 130 132 129 128 113 114 108 103 105 98 90 92 81 63 69 87 103 112 116 110 83 86 74 61 56 68 65 59 58 45 61 60 51 69 92 103 120 101 73 47 84 89 30 346 326 326 241 282 287 248 245 243 253 265 248 232 228
142 142 144 152 152 144 144 138 133 121 119 115 106 104 95 93 88 85 87 64 60 65 66 77 91 100 97 76 61 72 71 66 64 66 64 53 44 51 57 71 86 96 80 90 127 125 101 98 113 62 14 320 345 319 294 319 269 269 271 258 254 255 256
141 144 148 150 157 149 151 136 133 136 137 120 130 124 131 126 121 104 94 90 68 66 71 79 96 95 89 89 84 80 87 87 85 82 71 70 71 75 96 77 77 64 58 43 59 70 74 94 87 55 311 321 3 298 289 93 331 261 254 269 282 324 354
142 147 150 155 159 156 152 149 145 149 152 155 150 150 158 146 158 156 131 125 119 93 78 71 73 82 96 103 99 88 74 88 86 77 78 67 60 65 75 73 65 68 54 52 66 67 62 61 58 75 343 334 359 331 305 7 350 23 349 323 79 56 40
142 146 150 155 153 154 159 153 154 155 153 163 157 167 155 144 172 126 130 121 118 107 95 69 42 64 99 98 99 93 77 88 80 80 74 74 58 53 53 91 84 66 67 71 72 65 78 75 104 119 71 36 351 356 4 356 355 50 20 336 56 63 42
137 143 142 152 154 160 163 158 161 163 166 161 159 154 165 148 163 136 130 128 124 122 128 149 125 99 106 108 100 93 94 102 94 90 89 68 68 62 58 79 82 71 73 74 69 71 69 87 76 73 78 103 74 357 338 359 354 323 9 10 335 44 24
137 143 150 159 163 165 164 165 155 169 163 159 157 159 164 153 156 145 142 141 139 147 148 174 137 150 113 126 120 120 139 142 113 145 124 92 90 44 45 85 112 92 82 79 58 59 53 42 43 49 67 109 138 91 11 5 301 333 328 6 13 330 17
142 142 144 161 169 149 164 166 151 141 164 167 156 164 160 155 155 151 145 154 155 151 170 204 154 185 125 136 154 152 180 140 131 131 149 136 147 69 64 90 111 106 123 105 125 119 78 62 57 55 50 68 105 103 128 69 292 257 291 308 33 341 353
150 161 147 162 163 154 154 162 163 160 149 153 148 153 159 154 156 156 150 157 158 163 170 199 161 187 157 148 179 157 177 129 130 192 193 137 149 96 66 65 70 102 96 139 188 184 165 111 91 81 42 64 66 114 111 98 29 286 356 340 313 338 337
171 174 163 157 169 166 163 153 159 158 158 151 159 161 161 164 161 163 158 158 167 163 171 194 165 190 173 148 188 145 182 148 157 177 190 156 139 146 131 79 95 90 29 48 63 179 201 220 165 160 286 43 323 137 127 119 187 273 305 300 319 325 345
156 144 134 137 155 159 155 143 139 157 142 153 156 159 167 170 169 165 163 156 168 172 172 189 195 164 190 143 242 162 190 178 172 200 168 185 164 151 172 164 159 165 149 51 3 16 20 9 276 296 222 128 353 338 93 136 266 292 304 317 345 321 322
131 122 121 116 135 153 162 154 156 137 134 168 151 166 169 171 166 161 166 166 161 181 182 181 192 153 191 178 223 198 191 208 197 200 182 187 196 182 185 181 211 184 148 149 136 45 18 351 56 113 284 248 252 263 202 130 197 220 291 315 322 311 306
61 65 52 25 34 108 162 177 161 149 164 161 139 149 172 155 112 67 46 13 337 191 187 187 186 173 185 196 200 216 186 200 210 194 191 198 196 178 182 153 163 171 129 102 60 315 316 332 335 49 39 76 46 348 338 328 252 276 277 286 280 303 285
17 6 45 50 43 38 43 40 55 123 107 80 106 109 93 98 108 119 136 151 181 268 242 199 190 191 189 194 200 210 194 195 209 200 187 201 192 172 178 175 194 180 140 111 136 319 313 345 351 34 25 8 35 22 19 31 52 139 265 317 295 293 300
117 127 105 131 113 75 67 67 56 79 85 82 75 76 98 112 117 140 153 159 188 191 98 77 62 347 301 234 203 200 194 189 200 209 197 199 190 179 177 187 206 176 149 143 244 267 6 46 44 44 32 6 13 349 347 356 341 5 338 308 300 288 309
148 169 159 130 124 143 161 141 123 88 119 144 157 155 137 146 150 174 170 176 179 164 126 133 155 190 215 241 233 206 197 190 191 194 201 200 200 171 182 185 200 172 158 158 192 193 90 66 48 37 28 14 7 7 4 352 355 353 352 308 288 306 324
206 187 177 164 170 173 181 176 171 190 179 132 128 111 119 150 183 180 200 203 196 165 149 150 172 204 215 216 217 217 201 196 192 190 196 189 199 169 178 178 174 150 152 157 152 162 125 69 73 66 47 30 9 11 352 340 343 342 333 325 305 283 299
199 196 197 187 192 201 195 199 206 204 189 142 128 142 147 179 208 195 200 199 171 150 166 175 192 212 220 220 210 211 209 197 195 192 187 186 174 158 160 158 150 147 143 149 145 138 119 118 95 50 5 27 16 12 353 345 353 347 341 333 316 320 319
180 175 180 179 182 204 220 235 233 231 210 222 212 205 177 175 192 214 198 181 183 185 184 188 194 204 211 220 210 218 223 211 192 186 181 173 161 156 147 141 133 131 132 127 126 130 134 138 123 339 310 62 18 20 350 356 342 346 331 327 314 323 324
185 175 175 187 198 200 218 219 224 241 243 229 218 201 186 187 195 207 209 204 192 203 215 216 216 217 217 175 172 189 206 233 208 183 173 160 156 156 151 141 139 136 134 136 134 137 139 131 146 177 208 197 250 291 300 314 310 302 298 302 292 305 314
44 110 183 185 198 213 215 204 215 242 245 239 235 229 204 208 210 208 207 203 206 215 223 225 222 216 210 190 199 206 205 218 216 196 173 161 156 155 152 143 143 147 146 147 154 162 169 185 204 210 203 209 211 210 244 274 285 277 284 281 284 302 291
14 16 59 45 65 111 158 191 235 251 236 209 224 205 214 222 216 209 206 207 209 215 224 231 218 222 225 202 192 201 205 206 188 193 177 158 154 153 157 154 157 155 159 166 170 178 203 245 248 241 233 233 238 246 254 222 251 282 262 274 287 278 283
7 26 27 38 32 18 13 16 58 153 205 242 237 200 219 217 224 213 204 206 215 216 220 231 221 220 228 228 197 196 199 191 166 179 171 158 153 157 157 151 146 158 166 177 171 162 189 233 245 243 249 286 290 258 257 261 251 242 270 271 268 275 264
332 352 34 38 36 23 19 357 342 343 352 20 126 189 216 227 245 240 219 212 213 215 213 221 220 221 223 215 188 172 178 159 162 160 162 158 158 158 153 152 141 142 145 154 159 171 196 199 224 227 183 205 240 260 250 251 256 256 246 244 255 264 270
226 144 79 41 17 359 346 323 323 310 313 298 306 307 315 317 286 258 253 236 221 200 206 197 204 214 216 172 157 144 133 129 112 112 117 124 125 129 123 116 115 117 124 119 107 129 128 129 137 146 149 185 202 221 223 244 241 235 237 223 226 246 263
287 70 92 90 83 312 309 273 269 283 302 309 314 321 309 313 299 300 285 270 215 155 300 347 244 219 156 143 130 126 132 129 127 116 101 96 100 103 105 101 97 109 122 117 166 154 161 149 167 189 228 241 249 273 271 245 258 262 254 260 275 284 299
5 297 186 179 208 225 245 281 292 288 319 313 308 306 270 287 352 9 354 352 142 85 18 28 126 133 137 129 109 113 110 107 108 109 112 105 97 94 92 106 125 162 190 172 186 181 167 152 167 220 244 267 273 280 281 304 310 350 16 11 3 345 311
31 57 69 184 228 247 252 269 264 255 254 289 309 273 298 51 42 31 46 54 70 87 26 25 127 131 133 125 122 118 112 105 105 113 114 125 137 128 140 171 180 160 107 74 77 61 51 55 60 38 31 10 352 336 314 347 3 340 342 343 339 333 330
341 332 322 288 250 255 251 238 235 216 255 249 267 3 56 85 61 44 43 74 87 96 88 33 65 109 113 114 109 113 112 106 96 90 97 81 68 77 69 62 76 92 96 103 91 75 67 73 74 66 53 33 342 318 276 331 333 326 323 326 323 327 319
290 284 276 279 285 261 243 210 219 216 255 241 34 79 78 81 81 58 50 61 69 85 100 72 64 75 78 82 92 93 93 104 106 96 79 84 71 50 76 71 66 95 101 100 99 96 85 87 104 114 92 350 279 281 258 290 295 298 294 286 286 285 284
276 287 263 254 264 282 271 232 247 184 217 65 85 87 81 83 82 70 63 66 83 67 78 95 74 85 82 79 80 87 82 86 91 91 80 65 62 53 61 82 81 101 108 115 118 123 133 129 143 175 218 247 233 250 277 287 280 278 274 274 277 282 276
281 268 266 291 315 305 277 221 168 173 155 99 102 100 101 91 87 78 66 72 76 80 66 75 96 84 89 89 90 91 88 86 102 98 75 58 48 45 56 110 111 116 115 129 143 154 174 188 207 208 236 237 252 262 267 260 265 273 277 279 276 274 270
269 266 267 268 269 278 285 275 253 232 189 125 117 119 119 114 106 100 88 74 78 77 77 76 81 86 87 93 95 97 103 100 87 90 97 81 67 48 47 81 97 88 60 122 187 212 216 225 218 233 246 257 261 265 273 272 272 279 277 275 274 270 264
281 290 276 273 244 248 273 276 276 245 198 145 130 130 135 128 118 120 119 109 87 76 68 84 87 102 101 101 104 107 106 96 92 100 93 89 63 52 60 72 189 276 260 244 239 239 245 242 246 264 275 275 274 278 270 271 274 266 268 271 267 262 259